Year,Month,Day,Hour,Minute,Value (Times are PST for temperature in C)
2009,04,27,00,00,8.20
2009,04,27,00,01,8.20
2009,04,27,00,02,8.20
2009,04,27,00,03,8.20
2009,04,27,00,04,8.20
2009,04,27,00,05,8.20
2009,04,27,00,06,8.20
2009,04,27,00,07,8.10
2009,04,27,00,08,8.10
2009,04,27,00,09,8.10
2009,04,27,00,10,8.10
2009,04,27,00,11,8.00
2009,04,27,00,12,8.00
2009,04,27,00,13,8.00
2009,04,27,00,14,7.90
2009,04,27,00,15,7.90
2009,04,27,00,16,7.90
2009,04,27,00,17,7.80
2009,04,27,00,18,7.80
2009,04,27,00,19,7.80
2009,04,27,00,20,7.80
2009,04,27,00,21,7.70
2009,04,27,00,22,7.70
2009,04,27,00,23,7.70
2009,04,27,00,24,7.60
2009,04,27,00,25,7.60
2009,04,27,00,26,7.60
2009,04,27,00,27,7.60
2009,04,27,00,28,7.50
2009,04,27,00,29,7.50
2009,04,27,00,30,7.50
2009,04,27,00,31,7.50
2009,04,27,00,32,7.50
2009,04,27,00,33,7.50
2009,04,27,00,34,7.50
2009,04,27,00,35,7.40
2009,04,27,00,36,7.40
2009,04,27,00,37,7.40
2009,04,27,00,38,7.40
2009,04,27,00,39,7.40
2009,04,27,00,40,7.50
2009,04,27,00,41,7.50
2009,04,27,00,42,7.50
2009,04,27,00,43,7.50
2009,04,27,00,44,7.50
2009,04,27,00,45,7.50
2009,04,27,00,46,7.50
2009,04,27,00,47,7.50
2009,04,27,00,48,7.40
2009,04,27,00,49,7.40
2009,04,27,00,50,7.40
2009,04,27,00,51,7.30
2009,04,27,00,52,7.30
2009,04,27,00,53,7.30
2009,04,27,00,54,7.30
2009,04,27,00,55,7.30
2009,04,27,00,56,7.30
2009,04,27,00,57,7.30
2009,04,27,00,58,7.30
2009,04,27,00,59,7.30
2009,04,27,01,00,7.20
2009,04,27,01,01,7.20
2009,04,27,01,02,7.20
2009,04,27,01,03,7.20
2009,04,27,01,04,7.20
2009,04,27,01,05,7.20
2009,04,27,01,06,7.10
2009,04,27,01,07,7.10
2009,04,27,01,08,7.10
2009,04,27,01,09,7.00
2009,04,27,01,10,7.00
2009,04,27,01,11,7.00
2009,04,27,01,12,7.00
2009,04,27,01,13,6.90
2009,04,27,01,14,6.90
2009,04,27,01,15,6.90
2009,04,27,01,16,6.90
2009,04,27,01,17,6.90
2009,04,27,01,18,6.90
2009,04,27,01,19,6.90
2009,04,27,01,20,6.90
2009,04,27,01,21,6.90
2009,04,27,01,22,6.90
2009,04,27,01,23,6.90
2009,04,27,01,24,6.90
2009,04,27,01,25,6.90
2009,04,27,01,26,6.90
2009,04,27,01,27,6.90
2009,04,27,01,28,6.90
2009,04,27,01,29,6.90
2009,04,27,01,30,6.90
2009,04,27,01,31,6.80
2009,04,27,01,32,6.80
2009,04,27,01,33,6.80
2009,04,27,01,34,6.80
2009,04,27,01,35,6.80
2009,04,27,01,36,6.80
2009,04,27,01,37,6.80
2009,04,27,01,38,6.80
2009,04,27,01,39,6.80
2009,04,27,01,40,6.80
2009,04,27,01,41,6.80
2009,04,27,01,42,6.70
2009,04,27,01,43,6.70
2009,04,27,01,44,6.70
2009,04,27,01,45,6.70
2009,04,27,01,46,6.70
2009,04,27,01,47,6.70
2009,04,27,01,48,6.70
2009,04,27,01,49,6.70
2009,04,27,01,50,6.70
2009,04,27,01,51,6.70
2009,04,27,01,52,6.70
2009,04,27,01,53,6.70
2009,04,27,01,54,6.60
2009,04,27,01,55,6.60
2009,04,27,01,56,6.60
2009,04,27,01,57,6.60
2009,04,27,01,58,6.60
2009,04,27,01,59,6.60
2009,04,27,02,00,6.60
2009,04,27,02,01,6.50
2009,04,27,02,02,6.40
2009,04,27,02,03,6.40
2009,04,27,02,04,6.40
2009,04,27,02,05,6.40
2009,04,27,02,06,6.40
2009,04,27,02,07,6.40
2009,04,27,02,08,6.40
2009,04,27,02,09,6.40
2009,04,27,02,10,6.30
2009,04,27,02,11,6.30
2009,04,27,02,12,6.30
2009,04,27,02,13,6.20
2009,04,27,02,14,6.20
2009,04,27,02,15,6.20
2009,04,27,02,16,6.20
2009,04,27,02,17,6.20
2009,04,27,02,18,6.20
2009,04,27,02,19,6.20
2009,04,27,02,20,6.20
2009,04,27,02,21,6.20
2009,04,27,02,22,6.20
2009,04,27,02,23,6.20
2009,04,27,02,24,6.20
2009,04,27,02,25,6.20
2009,04,27,02,26,6.20
2009,04,27,02,27,6.20
2009,04,27,02,28,6.20
2009,04,27,02,29,6.10
2009,04,27,02,30,6.10
2009,04,27,02,31,6.10
2009,04,27,02,32,6.10
2009,04,27,02,33,6.10
2009,04,27,02,34,6.10
2009,04,27,02,35,6.10
2009,04,27,02,36,6.00
2009,04,27,02,37,6.00
2009,04,27,02,38,6.00
2009,04,27,02,39,6.00
2009,04,27,02,40,6.00
2009,04,27,02,41,5.90
2009,04,27,02,42,5.90
2009,04,27,02,43,5.90
2009,04,27,02,44,5.90
2009,04,27,02,45,5.90
2009,04,27,02,46,5.90
2009,04,27,02,47,5.90
2009,04,27,02,48,5.90
2009,04,27,02,49,5.90
2009,04,27,02,50,5.80
2009,04,27,02,51,5.80
2009,04,27,02,52,5.80
2009,04,27,02,53,5.80
2009,04,27,02,54,5.80
2009,04,27,02,55,5.90
2009,04,27,02,56,5.90
2009,04,27,02,57,5.90
2009,04,27,02,58,5.90
2009,04,27,02,59,5.90
2009,04,27,03,00,5.90
2009,04,27,03,01,5.90
2009,04,27,03,02,5.90
2009,04,27,03,03,5.90
2009,04,27,03,04,5.80
2009,04,27,03,05,5.80
2009,04,27,03,06,5.80
2009,04,27,03,07,5.80
2009,04,27,03,08,5.80
2009,04,27,03,09,5.90
2009,04,27,03,10,5.90
2009,04,27,03,11,5.90
2009,04,27,03,12,5.90
2009,04,27,03,13,5.90
2009,04,27,03,14,5.90
2009,04,27,03,15,5.90
2009,04,27,03,16,5.90
2009,04,27,03,17,5.90
2009,04,27,03,18,5.90
2009,04,27,03,19,5.80
2009,04,27,03,20,5.80
2009,04,27,03,21,5.70
2009,04,27,03,22,5.70
2009,04,27,03,23,5.70
2009,04,27,03,24,5.70
2009,04,27,03,25,5.70
2009,04,27,03,26,5.70
2009,04,27,03,27,5.70
2009,04,27,03,28,5.70
2009,04,27,03,29,5.70
2009,04,27,03,30,5.70
2009,04,27,03,31,5.60
2009,04,27,03,32,5.60
2009,04,27,03,33,5.60
2009,04,27,03,34,5.60
2009,04,27,03,35,5.60
2009,04,27,03,36,5.60
2009,04,27,03,37,5.60
2009,04,27,03,38,5.70
2009,04,27,03,39,5.70
2009,04,27,03,40,5.70
2009,04,27,03,41,5.70
2009,04,27,03,42,5.70
2009,04,27,03,43,5.70
2009,04,27,03,44,5.70
2009,04,27,03,45,5.70
2009,04,27,03,46,5.70
2009,04,27,03,47,5.70
2009,04,27,03,48,5.70
2009,04,27,03,49,5.70
2009,04,27,03,50,5.80
2009,04,27,03,51,5.80
2009,04,27,03,52,5.90
2009,04,27,03,53,6.00
2009,04,27,03,54,6.10
2009,04,27,03,55,6.20
2009,04,27,03,56,6.30
2009,04,27,03,57,6.40
2009,04,27,03,58,6.50
2009,04,27,03,59,6.70
2009,04,27,04,00,6.80
2009,04,27,04,01,6.80
2009,04,27,04,02,6.90
2009,04,27,04,03,7.00
2009,04,27,04,04,7.10
2009,04,27,04,05,7.10
2009,04,27,04,06,7.20
2009,04,27,04,07,7.30
2009,04,27,04,08,7.30
2009,04,27,04,09,7.30
2009,04,27,04,10,7.30
2009,04,27,04,11,7.30
2009,04,27,04,12,7.30
2009,04,27,04,13,7.30
2009,04,27,04,14,7.30
2009,04,27,04,15,7.30
2009,04,27,04,16,7.30
2009,04,27,04,17,7.30
2009,04,27,04,18,7.30
2009,04,27,04,19,7.30
2009,04,27,04,20,7.30
2009,04,27,04,21,7.30
2009,04,27,04,22,7.30
2009,04,27,04,23,7.30
2009,04,27,04,24,7.30
2009,04,27,04,25,7.30
2009,04,27,04,26,7.20
2009,04,27,04,27,7.20
2009,04,27,04,28,7.20
2009,04,27,04,29,7.20
2009,04,27,04,30,7.20
2009,04,27,04,31,7.20
2009,04,27,04,32,7.20
2009,04,27,04,33,7.20
2009,04,27,04,34,7.20
2009,04,27,04,35,7.20
2009,04,27,04,36,7.20
2009,04,27,04,37,7.20
2009,04,27,04,38,7.20
2009,04,27,04,39,7.20
2009,04,27,04,40,7.10
2009,04,27,04,41,7.10
2009,04,27,04,42,7.10
2009,04,27,04,43,7.10
2009,04,27,04,44,7.10
2009,04,27,04,45,7.10
2009,04,27,04,46,7.10
2009,04,27,04,47,7.10
2009,04,27,04,48,7.10
2009,04,27,04,49,7.10
2009,04,27,04,50,7.10
2009,04,27,04,51,7.20
2009,04,27,04,52,7.20
2009,04,27,04,53,7.20
2009,04,27,04,54,7.20
2009,04,27,04,55,7.20
2009,04,27,04,56,7.20
2009,04,27,04,57,7.20
2009,04,27,04,58,7.20
2009,04,27,04,59,7.20
2009,04,27,05,00,7.30
2009,04,27,05,01,7.30
2009,04,27,05,02,7.30
2009,04,27,05,03,7.30
2009,04,27,05,04,7.30
2009,04,27,05,05,7.30
2009,04,27,05,06,7.30
2009,04,27,05,07,7.30
2009,04,27,05,08,7.30
2009,04,27,05,09,7.30
2009,04,27,05,10,7.20
2009,04,27,05,11,7.20
2009,04,27,05,12,7.20
2009,04,27,05,13,7.20
2009,04,27,05,14,7.20
2009,04,27,05,15,7.20
2009,04,27,05,16,7.20
2009,04,27,05,17,7.20
2009,04,27,05,18,7.20
2009,04,27,05,19,7.10
2009,04,27,05,20,7.10
2009,04,27,05,21,7.10
2009,04,27,05,22,7.10
2009,04,27,05,23,7.10
2009,04,27,05,24,7.10
2009,04,27,05,25,7.00
2009,04,27,05,26,7.00
2009,04,27,05,27,7.00
2009,04,27,05,28,6.90
2009,04,27,05,29,6.90
2009,04,27,05,30,6.90
2009,04,27,05,31,6.80
2009,04,27,05,32,6.80
2009,04,27,05,33,6.80
2009,04,27,05,34,6.80
2009,04,27,05,35,6.80
2009,04,27,05,36,6.80
2009,04,27,05,37,6.70
2009,04,27,05,38,6.70
2009,04,27,05,39,6.70
2009,04,27,05,40,6.60
2009,04,27,05,41,6.60
2009,04,27,05,42,6.60
2009,04,27,05,43,6.60
2009,04,27,05,44,6.50
2009,04,27,05,45,6.40
2009,04,27,05,46,6.40
2009,04,27,05,47,6.40
2009,04,27,05,48,6.40
2009,04,27,05,49,6.30
2009,04,27,05,50,6.30
2009,04,27,05,51,6.30
2009,04,27,05,52,6.30
2009,04,27,05,53,6.30
2009,04,27,05,54,6.20
2009,04,27,05,55,6.20
2009,04,27,05,56,6.20
2009,04,27,05,57,6.20
2009,04,27,05,58,6.20
2009,04,27,05,59,6.20
2009,04,27,06,00,6.20
2009,04,27,06,01,6.30
2009,04,27,06,02,6.30
2009,04,27,06,03,6.30
2009,04,27,06,04,6.30
2009,04,27,06,05,6.40
2009,04,27,06,06,6.40
2009,04,27,06,07,6.40
2009,04,27,06,08,6.50
2009,04,27,06,09,6.60
2009,04,27,06,10,6.60
2009,04,27,06,11,6.60
2009,04,27,06,12,6.60
2009,04,27,06,13,6.60
2009,04,27,06,14,6.60
2009,04,27,06,15,6.60
2009,04,27,06,16,6.60
2009,04,27,06,17,6.60
2009,04,27,06,18,6.60
2009,04,27,06,19,6.60
2009,04,27,06,20,6.60
2009,04,27,06,21,6.60
2009,04,27,06,22,6.60
2009,04,27,06,23,6.70
2009,04,27,06,24,6.70
2009,04,27,06,25,6.70
2009,04,27,06,26,6.70
2009,04,27,06,27,6.70
2009,04,27,06,28,6.70
2009,04,27,06,29,6.70
2009,04,27,06,30,6.70
2009,04,27,06,31,6.70
2009,04,27,06,32,6.70
2009,04,27,06,33,6.70
2009,04,27,06,34,6.60
2009,04,27,06,35,6.60
2009,04,27,06,36,6.60
2009,04,27,06,37,6.60
2009,04,27,06,38,6.60
2009,04,27,06,39,6.60
2009,04,27,06,40,6.60
2009,04,27,06,41,6.60
2009,04,27,06,42,6.60
2009,04,27,06,43,6.60
2009,04,27,06,44,6.60
2009,04,27,06,45,6.60
2009,04,27,06,46,6.70
2009,04,27,06,47,6.70
2009,04,27,06,48,6.70
2009,04,27,06,49,6.70
2009,04,27,06,50,6.70
2009,04,27,06,51,6.80
2009,04,27,06,52,6.80
2009,04,27,06,53,6.80
2009,04,27,06,54,6.80
2009,04,27,06,55,6.80
2009,04,27,06,56,6.80
2009,04,27,06,57,6.80
2009,04,27,06,58,6.80
2009,04,27,06,59,6.80
2009,04,27,07,00,6.80
2009,04,27,07,01,6.80
2009,04,27,07,02,6.80
2009,04,27,07,03,6.80
2009,04,27,07,04,6.80
2009,04,27,07,05,6.80
2009,04,27,07,06,6.80
2009,04,27,07,07,6.80
2009,04,27,07,08,6.80
2009,04,27,07,09,6.80
2009,04,27,07,10,6.80
2009,04,27,07,11,6.80
2009,04,27,07,12,6.80
2009,04,27,07,13,6.80
2009,04,27,07,14,6.90
2009,04,27,07,15,6.90
2009,04,27,07,16,6.90
2009,04,27,07,17,6.90
2009,04,27,07,18,6.90
2009,04,27,07,19,7.00
2009,04,27,07,20,7.00
2009,04,27,07,21,7.00
2009,04,27,07,22,7.10
2009,04,27,07,23,7.10
2009,04,27,07,24,7.20
2009,04,27,07,25,7.20
2009,04,27,07,26,7.30
2009,04,27,07,27,7.30
2009,04,27,07,28,7.30
2009,04,27,07,29,7.30
2009,04,27,07,30,7.40
2009,04,27,07,31,7.50
2009,04,27,07,32,7.60
2009,04,27,07,33,7.70
2009,04,27,07,34,7.80
2009,04,27,07,35,7.90
2009,04,27,07,36,8.00
2009,04,27,07,37,8.10
2009,04,27,07,38,8.20
2009,04,27,07,39,8.30
2009,04,27,07,40,8.40
2009,04,27,07,41,8.50
2009,04,27,07,42,8.60
2009,04,27,07,43,8.70
2009,04,27,07,44,8.70
2009,04,27,07,45,8.80
2009,04,27,07,46,8.80
2009,04,27,07,47,8.90
2009,04,27,07,48,9.00
2009,04,27,07,49,9.00
2009,04,27,07,50,9.10
2009,04,27,07,51,9.20
2009,04,27,07,52,9.20
2009,04,27,07,53,9.20
2009,04,27,07,54,9.30
2009,04,27,07,55,9.40
2009,04,27,07,56,9.40
2009,04,27,07,57,9.40
2009,04,27,07,58,9.50
2009,04,27,07,59,9.50
2009,04,27,08,00,9.60
2009,04,27,08,01,9.60
2009,04,27,08,02,9.70
2009,04,27,08,03,9.70
2009,04,27,08,04,9.70
2009,04,27,08,05,9.70
2009,04,27,08,06,9.70
2009,04,27,08,07,9.80
2009,04,27,08,08,9.80
2009,04,27,08,09,9.90
2009,04,27,08,10,9.90
2009,04,27,08,11,9.90
2009,04,27,08,12,10.00
2009,04,27,08,13,10.10
2009,04,27,08,14,10.10
2009,04,27,08,15,10.10
2009,04,27,08,16,10.10
2009,04,27,08,17,10.10
2009,04,27,08,18,10.10
2009,04,27,08,19,10.10
2009,04,27,08,20,10.10
2009,04,27,08,21,10.10
2009,04,27,08,22,10.10
2009,04,27,08,23,10.10
2009,04,27,08,24,10.10
2009,04,27,08,25,10.20
2009,04,27,08,26,10.20
2009,04,27,08,27,10.30
2009,04,27,08,28,10.40
2009,04,27,08,29,10.40
2009,04,27,08,30,10.40
2009,04,27,08,31,10.40
2009,04,27,08,32,10.40
2009,04,27,08,33,10.40
2009,04,27,08,34,10.40
2009,04,27,08,35,10.40
2009,04,27,08,36,10.40
2009,04,27,08,37,10.40
2009,04,27,08,38,10.40
2009,04,27,08,39,10.40
2009,04,27,08,40,10.60
2009,04,27,08,41,10.60
2009,04,27,08,42,10.60
2009,04,27,08,43,10.60
2009,04,27,08,44,10.60
2009,04,27,08,45,10.60
2009,04,27,08,46,10.70
2009,04,27,08,47,10.70
2009,04,27,08,48,10.70
2009,04,27,08,49,10.70
2009,04,27,08,50,10.70
2009,04,27,08,51,10.70
2009,04,27,08,52,10.80
2009,04,27,08,53,10.80
2009,04,27,08,54,10.80
2009,04,27,08,55,10.90
2009,04,27,08,56,10.90
2009,04,27,08,57,10.90
2009,04,27,08,58,10.90
2009,04,27,08,59,10.90
2009,04,27,09,00,11.10
2009,04,27,09,01,11.10
2009,04,27,09,02,11.10
2009,04,27,09,03,11.10
2009,04,27,09,04,11.10
2009,04,27,09,05,11.20
2009,04,27,09,06,11.10
2009,04,27,09,07,11.10
2009,04,27,09,08,11.10
2009,04,27,09,09,11.10
2009,04,27,09,10,11.10
2009,04,27,09,11,11.10
2009,04,27,09,12,11.10
2009,04,27,09,13,11.10
2009,04,27,09,14,11.10
2009,04,27,09,15,11.20
2009,04,27,09,16,11.30
2009,04,27,09,17,11.40
2009,04,27,09,18,11.40
2009,04,27,09,19,11.40
2009,04,27,09,20,11.40
2009,04,27,09,21,11.50
2009,04,27,09,22,11.50
2009,04,27,09,23,11.40
2009,04,27,09,24,11.40
2009,04,27,09,25,11.40
2009,04,27,09,26,11.40
2009,04,27,09,27,11.40
2009,04,27,09,28,11.40
2009,04,27,09,29,11.40
2009,04,27,09,30,11.40
2009,04,27,09,31,11.40
2009,04,27,09,32,11.40
2009,04,27,09,33,11.50
2009,04,27,09,34,11.60
2009,04,27,09,35,11.60
2009,04,27,09,36,11.60
2009,04,27,09,37,11.70
2009,04,27,09,38,11.70
2009,04,27,09,39,11.70
2009,04,27,09,40,11.70
2009,04,27,09,41,11.60
2009,04,27,09,42,11.60
2009,04,27,09,43,11.60
2009,04,27,09,44,11.60
2009,04,27,09,45,11.60
2009,04,27,09,46,11.60
2009,04,27,09,47,11.70
2009,04,27,09,48,11.70
2009,04,27,09,49,11.80
2009,04,27,09,50,11.80
2009,04,27,09,51,11.90
2009,04,27,09,52,12.00
2009,04,27,09,53,12.10
2009,04,27,09,54,12.20
2009,04,27,09,55,12.30
2009,04,27,09,56,12.30
2009,04,27,09,57,12.30
2009,04,27,09,58,12.20
2009,04,27,09,59,12.10
2009,04,27,10,00,12.00
2009,04,27,10,01,12.00
2009,04,27,10,02,12.00
2009,04,27,10,03,11.90
2009,04,27,10,04,11.90
2009,04,27,10,05,11.90
2009,04,27,10,06,11.80
2009,04,27,10,07,11.80
2009,04,27,10,08,11.80
2009,04,27,10,09,11.80
2009,04,27,10,10,11.90
2009,04,27,10,11,12.00
2009,04,27,10,12,12.10
2009,04,27,10,13,12.10
2009,04,27,10,14,12.20
2009,04,27,10,15,12.20
2009,04,27,10,16,12.30
2009,04,27,10,17,12.30
2009,04,27,10,18,12.40
2009,04,27,10,19,12.40
2009,04,27,10,20,12.40
2009,04,27,10,21,12.40
2009,04,27,10,22,12.40
2009,04,27,10,23,12.40
2009,04,27,10,24,12.40
2009,04,27,10,25,12.50
2009,04,27,10,26,12.50
2009,04,27,10,27,12.40
2009,04,27,10,28,12.40
2009,04,27,10,29,12.30
2009,04,27,10,30,12.30
2009,04,27,10,31,12.30
2009,04,27,10,32,12.30
2009,04,27,10,33,12.40
2009,04,27,10,34,12.50
2009,04,27,10,35,12.50
2009,04,27,10,36,12.60
2009,04,27,10,37,12.60
2009,04,27,10,38,12.60
2009,04,27,10,39,12.50
2009,04,27,10,40,12.50
2009,04,27,10,41,12.50
2009,04,27,10,42,12.50
2009,04,27,10,43,12.60
2009,04,27,10,44,12.60
2009,04,27,10,45,12.60
2009,04,27,10,46,12.60
2009,04,27,10,47,12.70
2009,04,27,10,48,12.70
2009,04,27,10,49,12.80
2009,04,27,10,50,12.80
2009,04,27,10,51,12.70
2009,04,27,10,52,12.70
2009,04,27,10,53,12.60
2009,04,27,10,54,12.60
2009,04,27,10,55,12.60
2009,04,27,10,56,12.60
2009,04,27,10,57,12.60
2009,04,27,10,58,12.60
2009,04,27,10,59,12.60
2009,04,27,11,00,12.60
2009,04,27,11,01,12.60
2009,04,27,11,02,12.60
2009,04,27,11,03,12.70
2009,04,27,11,04,12.80
2009,04,27,11,05,12.80
2009,04,27,11,06,12.80
2009,04,27,11,07,12.80
2009,04,27,11,08,12.80
2009,04,27,11,09,12.70
2009,04,27,11,10,12.70
2009,04,27,11,11,12.70
2009,04,27,11,12,12.70
2009,04,27,11,13,12.70
2009,04,27,11,14,12.80
2009,04,27,11,15,12.80
2009,04,27,11,16,12.80
2009,04,27,11,17,12.80
2009,04,27,11,18,12.80
2009,04,27,11,19,12.80
2009,04,27,11,20,12.80
2009,04,27,11,21,12.80
2009,04,27,11,22,12.80
2009,04,27,11,23,12.80
2009,04,27,11,24,12.80
2009,04,27,11,25,12.80
2009,04,27,11,26,12.90
2009,04,27,11,27,13.00
2009,04,27,11,28,13.10
2009,04,27,11,29,13.10
2009,04,27,11,30,13.20
2009,04,27,11,31,13.20
2009,04,27,11,32,13.20
2009,04,27,11,33,13.20
2009,04,27,11,34,13.30
2009,04,27,11,35,13.30
2009,04,27,11,36,13.30
2009,04,27,11,37,13.30
2009,04,27,11,38,13.30
2009,04,27,11,39,13.30
2009,04,27,11,40,13.40
2009,04,27,11,41,13.40
2009,04,27,11,42,13.50
2009,04,27,11,43,13.50
2009,04,27,11,44,13.60
2009,04,27,11,45,13.60
2009,04,27,11,46,13.50
2009,04,27,11,47,13.40
2009,04,27,11,48,13.40
2009,04,27,11,49,13.30
2009,04,27,11,50,13.30
2009,04,27,11,51,13.30
2009,04,27,11,52,13.20
2009,04,27,11,53,13.10
2009,04,27,11,54,13.10
2009,04,27,11,55,13.20
2009,04,27,11,56,13.20
2009,04,27,11,57,13.20
2009,04,27,11,58,13.20
2009,04,27,11,59,13.20
2009,04,27,12,00,13.20
2009,04,27,12,01,13.30
2009,04,27,12,02,13.30
2009,04,27,12,03,13.30
2009,04,27,12,04,13.40
2009,04,27,12,05,13.50
2009,04,27,12,06,13.50
2009,04,27,12,07,13.50
2009,04,27,12,08,13.50
2009,04,27,12,09,13.60
2009,04,27,12,10,13.50
2009,04,27,12,11,13.50
2009,04,27,12,12,13.40
2009,04,27,12,13,13.40
2009,04,27,12,14,13.30
2009,04,27,12,15,13.30
2009,04,27,12,16,13.30
2009,04,27,12,17,13.30
2009,04,27,12,18,13.30
2009,04,27,12,19,13.30
2009,04,27,12,20,13.40
2009,04,27,12,21,13.40
2009,04,27,12,22,13.40
2009,04,27,12,23,13.50
2009,04,27,12,24,13.50
2009,04,27,12,25,13.60
2009,04,27,12,26,13.70
2009,04,27,12,27,13.70
2009,04,27,12,28,13.60
2009,04,27,12,29,13.50
2009,04,27,12,30,13.50
2009,04,27,12,31,13.60
2009,04,27,12,32,13.70
2009,04,27,12,33,13.70
2009,04,27,12,34,13.70
2009,04,27,12,35,13.70
2009,04,27,12,36,13.70
2009,04,27,12,37,13.70
2009,04,27,12,38,13.80
2009,04,27,12,39,13.90
2009,04,27,12,40,14.00
2009,04,27,12,41,14.10
2009,04,27,12,42,14.10
2009,04,27,12,43,14.10
2009,04,27,12,44,14.20
2009,04,27,12,45,14.20
2009,04,27,12,46,14.20
2009,04,27,12,47,14.20
2009,04,27,12,48,14.20
2009,04,27,12,49,14.30
2009,04,27,12,50,14.30
2009,04,27,12,51,14.30
2009,04,27,12,52,14.30
2009,04,27,12,53,14.30
2009,04,27,12,54,14.30
2009,04,27,12,55,14.30
2009,04,27,12,56,14.30
2009,04,27,12,57,14.30
2009,04,27,12,58,14.30
2009,04,27,12,59,14.40
2009,04,27,13,00,14.40
2009,04,27,13,01,14.40
2009,04,27,13,02,14.50
2009,04,27,13,03,14.50
2009,04,27,13,04,14.50
2009,04,27,13,05,14.50
2009,04,27,13,06,14.50
2009,04,27,13,07,14.60
2009,04,27,13,08,14.60
2009,04,27,13,09,14.60
2009,04,27,13,10,14.50
2009,04,27,13,11,14.50
2009,04,27,13,12,14.40
2009,04,27,13,13,14.40
2009,04,27,13,14,14.50
2009,04,27,13,15,14.50
2009,04,27,13,16,14.60
2009,04,27,13,17,14.70
2009,04,27,13,18,14.80
2009,04,27,13,19,14.80
2009,04,27,13,20,14.80
2009,04,27,13,21,14.70
2009,04,27,13,22,14.80
2009,04,27,13,23,14.80
2009,04,27,13,24,14.90
2009,04,27,13,25,14.90
2009,04,27,13,26,15.00
2009,04,27,13,27,15.10
2009,04,27,13,28,15.10
2009,04,27,13,29,15.00
2009,04,27,13,30,14.90
2009,04,27,13,31,14.90
2009,04,27,13,32,15.00
2009,04,27,13,33,15.00
2009,04,27,13,34,14.90
2009,04,27,13,35,15.00
2009,04,27,13,36,14.90
2009,04,27,13,37,14.90
2009,04,27,13,38,14.80
2009,04,27,13,39,14.90
2009,04,27,13,40,14.90
2009,04,27,13,41,14.90
2009,04,27,13,42,15.00
2009,04,27,13,43,15.00
2009,04,27,13,44,15.00
2009,04,27,13,45,15.10
2009,04,27,13,46,15.00
2009,04,27,13,47,15.00
2009,04,27,13,48,14.80
2009,04,27,13,49,14.80
2009,04,27,13,50,14.80
2009,04,27,13,51,14.80
2009,04,27,13,52,14.80
2009,04,27,13,53,14.80
2009,04,27,13,54,14.80
2009,04,27,13,55,14.70
2009,04,27,13,56,14.70
2009,04,27,13,57,14.60
2009,04,27,13,58,14.60
2009,04,27,13,59,14.60
2009,04,27,14,00,14.60
2009,04,27,14,01,14.70
2009,04,27,14,02,14.70
2009,04,27,14,03,14.70
2009,04,27,14,04,14.70
2009,04,27,14,05,14.90
2009,04,27,14,06,15.10
2009,04,27,14,07,15.20
2009,04,27,14,08,15.20
2009,04,27,14,09,15.10
2009,04,27,14,10,15.00
2009,04,27,14,11,14.90
2009,04,27,14,12,14.80
2009,04,27,14,13,14.70
2009,04,27,14,14,14.70
2009,04,27,14,15,14.70
2009,04,27,14,16,14.70
2009,04,27,14,17,14.70
2009,04,27,14,18,14.70
2009,04,27,14,19,14.70
2009,04,27,14,20,14.70
2009,04,27,14,21,14.80
2009,04,27,14,22,14.80
2009,04,27,14,23,14.80
2009,04,27,14,24,14.90
2009,04,27,14,25,15.00
2009,04,27,14,26,15.10
2009,04,27,14,27,15.30
2009,04,27,14,28,15.40
2009,04,27,14,29,15.50
2009,04,27,14,30,15.40
2009,04,27,14,31,15.50
2009,04,27,14,32,15.50
2009,04,27,14,33,15.40
2009,04,27,14,34,15.40
2009,04,27,14,35,15.30
2009,04,27,14,36,15.30
2009,04,27,14,37,15.30
2009,04,27,14,38,15.30
2009,04,27,14,39,15.30
2009,04,27,14,40,15.30
2009,04,27,14,41,15.30
2009,04,27,14,42,15.30
2009,04,27,14,43,15.20
2009,04,27,14,44,15.10
2009,04,27,14,45,15.10
2009,04,27,14,46,15.20
2009,04,27,14,47,15.20
2009,04,27,14,48,15.30
2009,04,27,14,49,15.30
2009,04,27,14,50,15.30
2009,04,27,14,51,15.30
2009,04,27,14,52,15.40
2009,04,27,14,53,15.30
2009,04,27,14,54,15.30
2009,04,27,14,55,15.40
2009,04,27,14,56,15.40
2009,04,27,14,57,15.50
2009,04,27,14,58,15.50
2009,04,27,14,59,15.60
2009,04,27,15,00,15.60
2009,04,27,15,01,15.60
2009,04,27,15,02,15.60
2009,04,27,15,03,15.70
2009,04,27,15,04,15.80
2009,04,27,15,05,15.80
2009,04,27,15,06,15.80
2009,04,27,15,07,15.80
2009,04,27,15,08,15.80
2009,04,27,15,09,15.70
2009,04,27,15,10,15.70
2009,04,27,15,11,15.70
2009,04,27,15,12,15.60
2009,04,27,15,13,15.60
2009,04,27,15,14,15.70
2009,04,27,15,15,15.60
2009,04,27,15,16,15.60
2009,04,27,15,17,15.60
2009,04,27,15,18,15.60
2009,04,27,15,19,15.60
2009,04,27,15,20,15.60
2009,04,27,15,21,15.60
2009,04,27,15,22,15.60
2009,04,27,15,23,15.70
2009,04,27,15,24,15.70
2009,04,27,15,25,15.70
2009,04,27,15,26,15.60
2009,04,27,15,27,15.60
2009,04,27,15,28,15.60
2009,04,27,15,29,15.60
2009,04,27,15,30,15.60
2009,04,27,15,31,15.60
2009,04,27,15,32,15.50
2009,04,27,15,33,15.50
2009,04,27,15,34,15.60
2009,04,27,15,35,15.60
2009,04,27,15,36,15.70
2009,04,27,15,37,15.80
2009,04,27,15,38,15.90
2009,04,27,15,39,15.80
2009,04,27,15,40,15.80
2009,04,27,15,41,15.80
2009,04,27,15,42,15.80
2009,04,27,15,43,15.80
2009,04,27,15,44,15.80
2009,04,27,15,45,15.80
2009,04,27,15,46,16.00
2009,04,27,15,47,16.10
2009,04,27,15,48,16.10
2009,04,27,15,49,16.20
2009,04,27,15,50,16.10
2009,04,27,15,51,16.10
2009,04,27,15,52,16.10
2009,04,27,15,53,16.10
2009,04,27,15,54,16.10
2009,04,27,15,55,16.10
2009,04,27,15,56,16.10
2009,04,27,15,57,16.10
2009,04,27,15,58,16.10
2009,04,27,15,59,16.10
2009,04,27,16,00,16.10
2009,04,27,16,01,16.10
2009,04,27,16,02,16.00
2009,04,27,16,03,15.90
2009,04,27,16,04,15.90
2009,04,27,16,05,15.80
2009,04,27,16,06,15.70
2009,04,27,16,07,15.60
2009,04,27,16,08,15.60
2009,04,27,16,09,15.70
2009,04,27,16,10,15.70
2009,04,27,16,11,15.80
2009,04,27,16,12,15.90
2009,04,27,16,13,15.90
2009,04,27,16,14,16.00
2009,04,27,16,15,16.10
2009,04,27,16,16,16.10
2009,04,27,16,17,16.20
2009,04,27,16,18,16.30
2009,04,27,16,19,16.30
2009,04,27,16,20,16.40
2009,04,27,16,21,16.40
2009,04,27,16,22,16.40
2009,04,27,16,23,16.40
2009,04,27,16,24,16.30
2009,04,27,16,25,16.30
2009,04,27,16,26,16.20
2009,04,27,16,27,16.20
2009,04,27,16,28,16.10
2009,04,27,16,29,16.10
2009,04,27,16,30,16.10
2009,04,27,16,31,16.10
2009,04,27,16,32,16.00
2009,04,27,16,33,16.10
2009,04,27,16,34,16.10
2009,04,27,16,35,16.20
2009,04,27,16,36,16.10
2009,04,27,16,37,16.10
2009,04,27,16,38,16.10
2009,04,27,16,39,16.00
2009,04,27,16,40,15.90
2009,04,27,16,41,15.90
2009,04,27,16,42,15.90
2009,04,27,16,43,15.80
2009,04,27,16,44,15.80
2009,04,27,16,45,15.80
2009,04,27,16,46,15.70
2009,04,27,16,47,15.60
2009,04,27,16,48,15.60
2009,04,27,16,49,15.60
2009,04,27,16,50,15.60
2009,04,27,16,51,15.60
2009,04,27,16,52,15.60
2009,04,27,16,53,15.60
2009,04,27,16,54,15.60
2009,04,27,16,55,15.70
2009,04,27,16,56,15.80
2009,04,27,16,57,15.80
2009,04,27,16,58,15.80
2009,04,27,16,59,15.80
2009,04,27,17,00,15.80
2009,04,27,17,01,15.90
2009,04,27,17,02,16.00
2009,04,27,17,03,16.10
2009,04,27,17,04,16.00
2009,04,27,17,05,15.90
2009,04,27,17,06,15.80
2009,04,27,17,07,15.80
2009,04,27,17,08,15.90
2009,04,27,17,09,15.90
2009,04,27,17,10,15.80
2009,04,27,17,11,15.80
2009,04,27,17,12,15.80
2009,04,27,17,13,15.80
2009,04,27,17,14,15.90
2009,04,27,17,15,16.10
2009,04,27,17,16,16.10
2009,04,27,17,17,16.10
2009,04,27,17,18,15.90
2009,04,27,17,19,15.90
2009,04,27,17,20,15.80
2009,04,27,17,21,15.80
2009,04,27,17,22,15.80
2009,04,27,17,23,15.80
2009,04,27,17,24,15.80
2009,04,27,17,25,15.80
2009,04,27,17,26,15.80
2009,04,27,17,27,15.90
2009,04,27,17,28,16.00
2009,04,27,17,29,16.10
2009,04,27,17,30,16.10
2009,04,27,17,31,16.00
2009,04,27,17,32,15.90
2009,04,27,17,33,15.90
2009,04,27,17,34,15.80
2009,04,27,17,35,15.80
2009,04,27,17,36,15.80
2009,04,27,17,37,15.80
2009,04,27,17,38,15.80
2009,04,27,17,39,15.80
2009,04,27,17,40,15.90